Selinsgrove, PA

12:48 PM EST on December 18, 2017 (GMT -0500)
Penn Valley

Weather History for KSEG - June, 2013

Change the Weather History Date:

Saturday, June 29, 2013

  Actual Average (KIPT) Record (KIPT)
Temperature  
Mean Temperature 73 °F -  
Max Temperature 82 °F 81 °F 101 °F (1934)
Min Temperature 64 °F 58 °F 45 °F (1930)
Cooling Degree Days 8    
Growing Degree Days 23 (Base 50)    
Moisture  
Dew Point 64 °F    
Average Humidity 85    
Maximum Humidity 100    
Minimum Humidity 46    
Precipitation  
Precipitation 0.12 in - - ()
Sea Level Pressure  
Sea Level Pressure 29.59 in    
Wind  
Wind Speed 1 mph (South)    
Max Wind Speed 8 mph    
Max Gust Speed -    
Visibility 5 miles    
Events Fog , Rain    
Averages and records for this station are not official NWS values.
T = Trace of Precipitation, MM = Missing Value Source: NWS Daily Summary

Daily Weather History Graph

Daily Weather History Graph

Search for Another Location

Airport or City:

Trip Planner

Search our weather history database for the weather conditions in past years. The results will help you decide how hot, cold, wet, or windy it might be!

Date:

Astronomy

Jun. 29, 2013 Rise Set
Actual Time 5:38 AM EDT 8:43 PM EDT
Civil Twilight 5:05 AM EDT 9:16 PM EDT
Nautical Twilight 4:22 AM EDT 9:58 PM EDT
Astronomical Twilight 3:32 AM EDT 10:48 PM EDT
Moon 12:08 AM EDT (6/29) 12:51 PM EDT (6/29)
Length of Visible Light 16h 10m
Length of Day
15h 04m
Waning Gibbous, 56% of the Moon is Illuminated
Jun 29
Waning Gibbous
Jun 30
Last Quarter
Jul 8
New
Jul 15
First Quarter
Jul 22
Full

Hourly Weather History & Observations

Time (EDT) Temp. Heat Index Dew Point Humidity Pressure Visibility Wind Dir Wind Speed Gust Speed Precip Events Conditions
12:03 AM 66.2 °F - 64.4 °F 94% 29.55 in 3.0 mi Calm Calm - N/A   Partly Cloudy
12:34 AM 64.4 °F - 64.4 °F 100% 29.55 in 2.5 mi Calm Calm - N/A   Clear
12:45 AM 64.4 °F - 64.4 °F 100% 29.55 in 3.0 mi Calm Calm - N/A   Clear
12:53 AM 66.0 °F - 64.0 °F 93% 29.54 in 3.0 mi Calm Calm - N/A   Clear
1:05 AM 64.4 °F - 62.6 °F 94% 29.54 in 1.8 mi Calm Calm - N/A   Partly Cloudy
1:15 AM 64.4 °F - 62.6 °F 94% 29.55 in 1.0 mi Calm Calm - N/A   Mist
1:19 AM 64.4 °F - 62.6 °F 94% 29.55 in 2.0 mi Calm Calm - N/A   Scattered Clouds
1:29 AM 64.4 °F - 62.6 °F 94% 29.55 in 4.0 mi Calm Calm - N/A   Partly Cloudy
1:49 AM 64.4 °F - 62.6 °F 94% 29.55 in 1.5 mi Calm Calm - N/A   Mostly Cloudy
1:53 AM 64.9 °F - 63.0 °F 93% 29.54 in 0.5 mi Calm Calm - N/A Fog Fog
2:53 AM 64.9 °F - 64.0 °F 97% 29.52 in 1.2 mi Calm Calm - 0.01 in   Overcast
3:01 AM 64.4 °F - 64.4 °F 100% 29.53 in 2.5 mi Calm Calm - N/A   Overcast
3:11 AM 64.4 °F - 64.4 °F 100% 29.52 in 4.0 mi Calm Calm - N/A   Overcast
3:53 AM 64.9 °F - 63.0 °F 93% 29.52 in 4.0 mi Calm Calm - N/A   Mostly Cloudy
4:06 AM 64.4 °F - 62.6 °F 94% 29.54 in 5.0 mi Calm Calm - N/A   Scattered Clouds
4:40 AM 64.4 °F - 62.6 °F 94% 29.55 in 4.0 mi SE 3.5 mph - N/A   Mostly Cloudy
4:53 AM 64.0 °F - 63.0 °F 96% 29.55 in 4.0 mi Calm Calm - N/A   Mostly Cloudy
5:07 AM 64.4 °F - 62.6 °F 94% 29.56 in 4.0 mi Calm Calm - N/A   Scattered Clouds
5:32 AM 64.4 °F - 62.6 °F 94% 29.56 in 4.0 mi Calm Calm - N/A   Mostly Cloudy
5:53 AM 64.0 °F - 62.1 °F 93% 29.57 in 3.0 mi Calm Calm - N/A   Mostly Cloudy
6:40 AM 64.4 °F - 62.6 °F 94% 29.59 in 3.0 mi Calm Calm - N/A   Scattered Clouds
6:53 AM 64.9 °F - 63.0 °F 93% 29.58 in 3.0 mi Calm Calm - N/A   Scattered Clouds
7:08 AM 66.2 °F - 64.4 °F 94% 29.60 in 4.0 mi Calm Calm - N/A   Mostly Cloudy
7:23 AM 66.2 °F - 62.6 °F 88% 29.60 in 6.0 mi Calm Calm - N/A   Mostly Cloudy
7:53 AM 66.9 °F - 63.0 °F 87% 29.60 in 6.0 mi Calm Calm - N/A   Mostly Cloudy
8:18 AM 68.0 °F - 64.4 °F 88% 29.60 in 7.0 mi SE 3.5 mph - N/A   Scattered Clouds
8:53 AM 70.0 °F - 64.0 °F 81% 29.60 in 9.0 mi Calm Calm - N/A   Clear
9:53 AM 73.0 °F - 63.0 °F 71% 29.60 in 4.0 mi Variable 3.5 mph - N/A   Haze
10:53 AM 73.9 °F - 62.1 °F 66% 29.61 in 5.0 mi WSW 3.5 mph - N/A   Haze
11:53 AM 75.9 °F - 63.0 °F 64% 29.60 in 10.0 mi Variable 3.5 mph - N/A   Mostly Cloudy
12:53 PM 78.1 °F - 63.0 °F 60% 29.61 in 10.0 mi Variable 4.6 mph - N/A   Mostly Cloudy
1:53 PM 80.1 °F 81.2 °F 62.1 °F 54% 29.60 in 10.0 mi Variable 4.6 mph - N/A   Scattered Clouds
2:53 PM 81.0 °F 81.7 °F 61.0 °F 50% 29.60 in 10.0 mi SW 5.8 mph - N/A   Partly Cloudy
3:53 PM 82.9 °F 83.3 °F 61.0 °F 47% 29.59 in 10.0 mi Variable 5.8 mph - N/A   Partly Cloudy
4:53 PM 82.9 °F 83.2 °F 60.1 °F 46% 29.60 in 10.0 mi SW 8.1 mph - N/A   Partly Cloudy
5:53 PM 81.0 °F 81.7 °F 61.0 °F 50% 29.60 in 10.0 mi South 8.1 mph - N/A   Clear
6:53 PM 73.0 °F - 66.0 °F 79% 29.64 in 9.0 mi WNW 8.1 mph - 0.02 in Rain Light Rain
7:08 PM 71.6 °F - 66.2 °F 83% 29.66 in 1.8 mi Variable 3.5 mph - 0.05 in Rain Heavy Rain
7:21 PM 71.6 °F - 66.2 °F 83% 29.65 in 4.0 mi ESE 5.8 mph - 0.09 in Rain Light Rain
7:53 PM 71.1 °F - 68.0 °F 90% 29.66 in 9.0 mi Calm Calm - 0.09 in   Mostly Cloudy
8:53 PM 70.0 °F - 68.0 °F 93% 29.67 in 4.0 mi Calm Calm - N/A   Clear
9:53 PM 69.1 °F - 66.9 °F 93% 29.69 in 5.0 mi Calm Calm - N/A   Mostly Cloudy
10:53 PM 70.0 °F - 66.9 °F 90% 29.70 in 7.0 mi Calm Calm - N/A   Scattered Clouds
11:53 PM 69.1 °F - 66.0 °F 90% 29.71 in 7.0 mi Calm Calm - N/A   Overcast